Year,Month,Day,Hour,Minute,Value (Times are PST for temperature in C)
2018,07,18,00,00,18.60
2018,07,18,00,01,18.70
2018,07,18,00,02,18.70
2018,07,18,00,03,18.70
2018,07,18,00,04,18.70
2018,07,18,00,05,18.70
2018,07,18,00,06,18.70
2018,07,18,00,07,18.70
2018,07,18,00,08,18.70
2018,07,18,00,09,18.70
2018,07,18,00,10,18.70
2018,07,18,00,11,18.70
2018,07,18,00,12,18.70
2018,07,18,00,13,18.70
2018,07,18,00,14,18.80
2018,07,18,00,15,18.80
2018,07,18,00,16,18.80
2018,07,18,00,17,18.80
2018,07,18,00,18,18.80
2018,07,18,00,19,18.80
2018,07,18,00,20,18.80
2018,07,18,00,21,18.80
2018,07,18,00,22,18.80
2018,07,18,00,23,18.80
2018,07,18,00,24,18.80
2018,07,18,00,25,18.70
2018,07,18,00,26,18.70
2018,07,18,00,27,18.70
2018,07,18,00,28,18.70
2018,07,18,00,29,18.70
2018,07,18,00,30,18.70
2018,07,18,00,31,18.70
2018,07,18,00,32,18.60
2018,07,18,00,33,18.60
2018,07,18,00,34,18.60
2018,07,18,00,35,18.60
2018,07,18,00,36,18.60
2018,07,18,00,37,18.50
2018,07,18,00,38,18.50
2018,07,18,00,39,18.50
2018,07,18,00,40,18.50
2018,07,18,00,41,18.50
2018,07,18,00,42,18.40
2018,07,18,00,43,18.40
2018,07,18,00,44,18.40
2018,07,18,00,45,18.40
2018,07,18,00,46,18.40
2018,07,18,00,47,18.40
2018,07,18,00,48,18.40
2018,07,18,00,49,18.30
2018,07,18,00,50,18.30
2018,07,18,00,51,18.30
2018,07,18,00,52,18.30
2018,07,18,00,53,18.30
2018,07,18,00,54,18.20
2018,07,18,00,55,18.20
2018,07,18,00,56,18.20
2018,07,18,00,57,18.20
2018,07,18,00,58,18.10
2018,07,18,00,59,18.10
2018,07,18,01,00,18.00
2018,07,18,01,01,18.00
2018,07,18,01,02,17.90
2018,07,18,01,03,17.90
2018,07,18,01,04,17.90
2018,07,18,01,05,17.80
2018,07,18,01,06,17.80
2018,07,18,01,07,17.80
2018,07,18,01,08,17.80
2018,07,18,01,09,17.70
2018,07,18,01,10,17.70
2018,07,18,01,11,17.70
2018,07,18,01,12,17.60
2018,07,18,01,13,17.60
2018,07,18,01,14,17.60
2018,07,18,01,15,17.60
2018,07,18,01,16,17.60
2018,07,18,01,17,17.50
2018,07,18,01,18,17.50
2018,07,18,01,19,17.50
2018,07,18,01,20,17.50
2018,07,18,01,21,17.50
2018,07,18,01,22,17.50
2018,07,18,01,23,17.50
2018,07,18,01,24,17.50
2018,07,18,01,25,17.50
2018,07,18,01,26,17.50
2018,07,18,01,27,17.50
2018,07,18,01,28,17.50
2018,07,18,01,29,17.50
2018,07,18,01,30,17.50
2018,07,18,01,31,17.50
2018,07,18,01,32,17.40
2018,07,18,01,33,17.40
2018,07,18,01,34,17.40
2018,07,18,01,35,17.40
2018,07,18,01,36,17.40
2018,07,18,01,37,17.40
2018,07,18,01,38,17.40
2018,07,18,01,39,17.30
2018,07,18,01,40,17.30
2018,07,18,01,41,17.30
2018,07,18,01,42,17.30
2018,07,18,01,43,17.30
2018,07,18,01,44,17.30
2018,07,18,01,45,17.20
2018,07,18,01,46,17.20
2018,07,18,01,47,17.20
2018,07,18,01,48,17.20
2018,07,18,01,49,17.20
2018,07,18,01,50,17.20
2018,07,18,01,51,17.20
2018,07,18,01,52,17.20
2018,07,18,01,53,17.10
2018,07,18,01,54,17.10
2018,07,18,01,55,17.10
2018,07,18,01,56,17.10
2018,07,18,01,57,17.10
2018,07,18,01,58,17.10
2018,07,18,01,59,17.10
2018,07,18,02,00,17.10
2018,07,18,02,01,17.10
2018,07,18,02,02,17.10
2018,07,18,02,03,17.00
2018,07,18,02,04,17.00
2018,07,18,02,05,17.00
2018,07,18,02,06,16.90
2018,07,18,02,07,16.90
2018,07,18,02,08,16.90
2018,07,18,02,09,16.90
2018,07,18,02,10,16.90
2018,07,18,02,11,16.80
2018,07,18,02,12,16.80
2018,07,18,02,13,16.80
2018,07,18,02,14,16.80
2018,07,18,02,15,16.70
2018,07,18,02,16,16.70
2018,07,18,02,17,16.70
2018,07,18,02,18,16.70
2018,07,18,02,19,16.70
2018,07,18,02,20,16.60
2018,07,18,02,21,16.60
2018,07,18,02,22,16.60
2018,07,18,02,23,16.60
2018,07,18,02,24,16.60
2018,07,18,02,25,16.50
2018,07,18,02,26,16.50
2018,07,18,02,27,16.50
2018,07,18,02,28,16.50
2018,07,18,02,29,16.40
2018,07,18,02,30,16.40
2018,07,18,02,31,16.40
2018,07,18,02,32,16.40
2018,07,18,02,33,16.40
2018,07,18,02,34,16.40
2018,07,18,02,35,16.40
2018,07,18,02,36,16.40
2018,07,18,02,37,16.40
2018,07,18,02,38,16.40
2018,07,18,02,39,16.40
2018,07,18,02,40,16.40
2018,07,18,02,41,16.40
2018,07,18,02,42,16.40
2018,07,18,02,43,16.40
2018,07,18,02,44,16.40
2018,07,18,02,45,16.40
2018,07,18,02,46,16.40
2018,07,18,02,47,16.40
2018,07,18,02,48,16.40
2018,07,18,02,49,16.40
2018,07,18,02,50,16.40
2018,07,18,02,51,16.40
2018,07,18,02,52,16.40
2018,07,18,02,53,16.40
2018,07,18,02,54,16.40
2018,07,18,02,55,16.40
2018,07,18,02,56,16.40
2018,07,18,02,57,16.40
2018,07,18,02,58,16.40
2018,07,18,02,59,16.40
2018,07,18,03,00,16.40
2018,07,18,03,01,16.40
2018,07,18,03,02,16.40
2018,07,18,03,03,16.40
2018,07,18,03,04,16.30
2018,07,18,03,05,16.30
2018,07,18,03,06,16.30
2018,07,18,03,07,16.30
2018,07,18,03,08,16.30
2018,07,18,03,09,16.30
2018,07,18,03,10,16.30
2018,07,18,03,11,16.30
2018,07,18,03,12,16.40
2018,07,18,03,13,16.40
2018,07,18,03,14,16.30
2018,07,18,03,15,16.30
2018,07,18,03,16,16.30
2018,07,18,03,17,16.30
2018,07,18,03,18,16.30
2018,07,18,03,19,16.30
2018,07,18,03,20,16.30
2018,07,18,03,21,16.30
2018,07,18,03,22,16.30
2018,07,18,03,23,16.20
2018,07,18,03,24,16.20
2018,07,18,03,25,16.20
2018,07,18,03,26,16.20
2018,07,18,03,27,16.20
2018,07,18,03,28,16.20
2018,07,18,03,29,16.20
2018,07,18,03,30,16.10
2018,07,18,03,31,16.10
2018,07,18,03,32,16.10
2018,07,18,03,33,16.10
2018,07,18,03,34,16.10
2018,07,18,03,35,16.10
2018,07,18,03,36,16.00
2018,07,18,03,37,16.00
2018,07,18,03,38,16.00
2018,07,18,03,39,15.90
2018,07,18,03,40,15.90
2018,07,18,03,41,15.90
2018,07,18,03,42,15.90
2018,07,18,03,43,15.90
2018,07,18,03,44,15.90
2018,07,18,03,45,15.90
2018,07,18,03,46,15.80
2018,07,18,03,47,15.80
2018,07,18,03,48,15.80
2018,07,18,03,49,15.80
2018,07,18,03,50,15.80
2018,07,18,03,51,15.80
2018,07,18,03,52,15.80
2018,07,18,03,53,15.80
2018,07,18,03,54,15.80
2018,07,18,03,55,15.80
2018,07,18,03,56,15.80
2018,07,18,03,57,15.80
2018,07,18,03,58,15.80
2018,07,18,03,59,15.80
2018,07,18,04,00,15.70
2018,07,18,04,01,15.70
2018,07,18,04,02,15.70
2018,07,18,04,03,15.70
2018,07,18,04,04,15.70
2018,07,18,04,05,15.70
2018,07,18,04,06,15.70
2018,07,18,04,07,15.70
2018,07,18,04,08,15.70
2018,07,18,04,09,15.70
2018,07,18,04,10,15.70
2018,07,18,04,11,15.70
2018,07,18,04,12,15.70
2018,07,18,04,13,15.70
2018,07,18,04,14,15.70
2018,07,18,04,15,15.70
2018,07,18,04,16,15.70
2018,07,18,04,17,15.70
2018,07,18,04,18,15.70
2018,07,18,04,19,15.70
2018,07,18,04,20,15.70
2018,07,18,04,21,15.70
2018,07,18,04,22,15.70
2018,07,18,04,23,15.60
2018,07,18,04,24,15.60
2018,07,18,04,25,15.60
2018,07,18,04,26,15.60
2018,07,18,04,27,15.60
2018,07,18,04,28,15.60
2018,07,18,04,29,15.60
2018,07,18,04,30,15.60
2018,07,18,04,31,15.60
2018,07,18,04,32,15.60
2018,07,18,04,33,15.60
2018,07,18,04,34,15.60
2018,07,18,04,35,15.60
2018,07,18,04,36,15.60
2018,07,18,04,37,15.60
2018,07,18,04,38,15.60
2018,07,18,04,39,15.60
2018,07,18,04,40,15.60
2018,07,18,04,41,15.70
2018,07,18,04,42,15.60
2018,07,18,04,43,15.70
2018,07,18,04,44,15.70
2018,07,18,04,45,15.70
2018,07,18,04,46,15.70
2018,07,18,04,47,15.70
2018,07,18,04,48,15.60
2018,07,18,04,49,15.60
2018,07,18,04,50,15.60
2018,07,18,04,51,15.60
2018,07,18,04,52,15.60
2018,07,18,04,53,15.60
2018,07,18,04,54,15.50
2018,07,18,04,55,15.50
2018,07,18,04,56,15.50
2018,07,18,04,57,15.50
2018,07,18,04,58,15.50
2018,07,18,04,59,15.50
2018,07,18,05,00,15.40
2018,07,18,05,01,15.40
2018,07,18,05,02,15.40
2018,07,18,05,03,15.40
2018,07,18,05,04,15.40
2018,07,18,05,05,15.40
2018,07,18,05,06,15.40
2018,07,18,05,07,15.30
2018,07,18,05,08,15.30
2018,07,18,05,09,15.30
2018,07,18,05,10,15.30
2018,07,18,05,11,15.30
2018,07,18,05,12,15.30
2018,07,18,05,13,15.20
2018,07,18,05,14,15.20
2018,07,18,05,15,15.20
2018,07,18,05,16,15.20
2018,07,18,05,17,15.20
2018,07,18,05,18,15.20
2018,07,18,05,19,15.20
2018,07,18,05,20,15.20
2018,07,18,05,21,15.10
2018,07,18,05,22,15.10
2018,07,18,05,23,15.10
2018,07,18,05,24,15.10
2018,07,18,05,25,15.10
2018,07,18,05,26,15.00
2018,07,18,05,27,15.00
2018,07,18,05,28,15.00
2018,07,18,05,29,15.00
2018,07,18,05,30,15.00
2018,07,18,05,31,15.00
2018,07,18,05,32,15.00
2018,07,18,05,33,14.90
2018,07,18,05,34,14.90
2018,07,18,05,35,14.90
2018,07,18,05,36,14.90
2018,07,18,05,37,14.90
2018,07,18,05,38,14.90
2018,07,18,05,39,14.80
2018,07,18,05,40,14.80
2018,07,18,05,41,14.80
2018,07,18,05,42,14.80
2018,07,18,05,43,14.80
2018,07,18,05,44,14.80
2018,07,18,05,45,14.80
2018,07,18,05,46,14.80
2018,07,18,05,47,14.80
2018,07,18,05,48,14.80
2018,07,18,05,49,14.80
2018,07,18,05,50,14.80
2018,07,18,05,51,14.80
2018,07,18,05,52,14.80
2018,07,18,05,53,14.80
2018,07,18,05,54,14.80
2018,07,18,05,55,14.80
2018,07,18,05,56,14.80
2018,07,18,05,57,14.80
2018,07,18,05,58,14.80
2018,07,18,05,59,14.80
2018,07,18,06,00,14.80
2018,07,18,06,01,14.80
2018,07,18,06,02,14.80
2018,07,18,06,03,14.90
2018,07,18,06,04,14.90
2018,07,18,06,05,14.90
2018,07,18,06,06,14.90
2018,07,18,06,07,14.90
2018,07,18,06,08,14.90
2018,07,18,06,09,15.00
2018,07,18,06,10,14.90
2018,07,18,06,11,14.90
2018,07,18,06,12,14.90
2018,07,18,06,13,14.90
2018,07,18,06,14,14.90
2018,07,18,06,15,14.90
2018,07,18,06,16,15.00
2018,07,18,06,17,15.00
2018,07,18,06,18,14.90
2018,07,18,06,19,14.90
2018,07,18,06,20,14.90
2018,07,18,06,21,14.90
2018,07,18,06,22,14.90
2018,07,18,06,23,14.90
2018,07,18,06,24,14.90
2018,07,18,06,25,14.90
2018,07,18,06,26,14.90
2018,07,18,06,27,14.90
2018,07,18,06,28,14.90
2018,07,18,06,29,14.90
2018,07,18,06,30,14.90
2018,07,18,06,31,14.80
2018,07,18,06,32,14.90
2018,07,18,06,33,14.90
2018,07,18,06,34,14.90
2018,07,18,06,35,14.90
2018,07,18,06,36,14.90
2018,07,18,06,37,14.90
2018,07,18,06,38,14.90
2018,07,18,06,39,14.90
2018,07,18,06,40,14.90
2018,07,18,06,41,14.90
2018,07,18,06,42,14.90
2018,07,18,06,43,14.90
2018,07,18,06,44,14.90
2018,07,18,06,45,14.90
2018,07,18,06,46,14.90
2018,07,18,06,47,14.90
2018,07,18,06,48,14.90
2018,07,18,06,49,14.90
2018,07,18,06,50,14.90
2018,07,18,06,51,14.90
2018,07,18,06,52,14.90
2018,07,18,06,53,14.90
2018,07,18,06,54,14.90
2018,07,18,06,55,15.00
2018,07,18,06,56,15.00
2018,07,18,06,57,15.00
2018,07,18,06,58,15.10
2018,07,18,06,59,15.10
2018,07,18,07,00,15.10
2018,07,18,07,01,15.10
2018,07,18,07,02,15.20
2018,07,18,07,03,15.20
2018,07,18,07,04,15.30
2018,07,18,07,05,15.30
2018,07,18,07,06,15.40
2018,07,18,07,07,15.40
2018,07,18,07,08,15.40
2018,07,18,07,09,15.50
2018,07,18,07,10,15.50
2018,07,18,07,11,15.60
2018,07,18,07,12,15.60
2018,07,18,07,13,15.70
2018,07,18,07,14,15.70
2018,07,18,07,15,15.80
2018,07,18,07,16,15.90
2018,07,18,07,17,15.90
2018,07,18,07,18,16.00
2018,07,18,07,19,16.10
2018,07,18,07,20,16.20
2018,07,18,07,21,16.30
2018,07,18,07,22,16.40
2018,07,18,07,23,16.50
2018,07,18,07,24,16.60
2018,07,18,07,25,16.70
2018,07,18,07,26,16.90
2018,07,18,07,27,17.00
2018,07,18,07,28,17.10
2018,07,18,07,29,17.30
2018,07,18,07,30,17.40
2018,07,18,07,31,17.50
2018,07,18,07,32,17.70
2018,07,18,07,33,17.80
2018,07,18,07,34,18.00
2018,07,18,07,35,18.10
2018,07,18,07,36,18.30
2018,07,18,07,37,18.40
2018,07,18,07,38,18.50
2018,07,18,07,39,18.60
2018,07,18,07,40,18.70
2018,07,18,07,41,18.80
2018,07,18,07,42,18.80
2018,07,18,07,43,18.90
2018,07,18,07,44,18.90
2018,07,18,07,45,19.00
2018,07,18,07,46,19.10
2018,07,18,07,47,19.10
2018,07,18,07,48,19.20
2018,07,18,07,49,19.30
2018,07,18,07,50,19.40
2018,07,18,07,51,19.50
2018,07,18,07,52,19.60
2018,07,18,07,53,19.60
2018,07,18,07,54,19.70
2018,07,18,07,55,19.70
2018,07,18,07,56,19.70
2018,07,18,07,57,19.80
2018,07,18,07,58,19.80
2018,07,18,07,59,19.90
2018,07,18,08,00,19.90
2018,07,18,08,01,20.00
2018,07,18,08,02,20.00
2018,07,18,08,03,20.10
2018,07,18,08,04,20.10
2018,07,18,08,05,20.10
2018,07,18,08,06,20.10
2018,07,18,08,07,20.10
2018,07,18,08,08,20.20
2018,07,18,08,09,20.20
2018,07,18,08,10,20.30
2018,07,18,08,11,20.30
2018,07,18,08,12,20.30
2018,07,18,08,13,20.40
2018,07,18,08,14,20.40
2018,07,18,08,15,20.50
2018,07,18,08,16,20.50
2018,07,18,08,17,20.60
2018,07,18,08,18,20.60
2018,07,18,08,19,20.70
2018,07,18,08,20,20.70
2018,07,18,08,21,20.80
2018,07,18,08,22,20.80
2018,07,18,08,23,20.90
2018,07,18,08,24,20.90
2018,07,18,08,25,20.90
2018,07,18,08,26,20.90
2018,07,18,08,27,21.00
2018,07,18,08,28,20.90
2018,07,18,08,29,20.90
2018,07,18,08,30,20.90
2018,07,18,08,31,20.80
2018,07,18,08,32,20.60
2018,07,18,08,33,20.40
2018,07,18,08,34,20.30
2018,07,18,08,35,20.20
2018,07,18,08,36,20.10
2018,07,18,08,37,19.90
2018,07,18,08,38,19.80
2018,07,18,08,39,19.80
2018,07,18,08,40,19.70
2018,07,18,08,41,19.70
2018,07,18,08,42,19.70
2018,07,18,08,43,19.60
2018,07,18,08,44,19.60
2018,07,18,08,45,19.60
2018,07,18,08,46,19.60
2018,07,18,08,47,19.60
2018,07,18,08,48,19.60
2018,07,18,08,49,19.60
2018,07,18,08,50,19.60
2018,07,18,08,51,19.60
2018,07,18,08,52,19.60
2018,07,18,08,53,19.60
2018,07,18,08,54,19.60
2018,07,18,08,55,19.60
2018,07,18,08,56,19.60
2018,07,18,08,57,19.60
2018,07,18,08,58,19.60
2018,07,18,08,59,19.60
2018,07,18,09,00,19.60
2018,07,18,09,01,19.60
2018,07,18,09,02,19.60
2018,07,18,09,03,19.60
2018,07,18,09,04,19.60
2018,07,18,09,05,19.60
2018,07,18,09,06,19.70
2018,07,18,09,07,19.70
2018,07,18,09,08,19.70
2018,07,18,09,09,19.70
2018,07,18,09,10,19.80
2018,07,18,09,11,19.80
2018,07,18,09,12,19.90
2018,07,18,09,13,20.00
2018,07,18,09,14,20.00
2018,07,18,09,15,20.10
2018,07,18,09,16,20.10
2018,07,18,09,17,20.10
2018,07,18,09,18,20.20
2018,07,18,09,19,20.20
2018,07,18,09,20,20.30
2018,07,18,09,21,20.30
2018,07,18,09,22,20.30
2018,07,18,09,23,20.40
2018,07,18,09,24,20.30
2018,07,18,09,25,20.40
2018,07,18,09,26,20.40
2018,07,18,09,27,20.30
2018,07,18,09,28,20.30
2018,07,18,09,29,20.30
2018,07,18,09,30,20.20
2018,07,18,09,31,20.20
2018,07,18,09,32,20.30
2018,07,18,09,33,20.40
2018,07,18,09,34,20.40
2018,07,18,09,35,20.40
2018,07,18,09,36,20.40
2018,07,18,09,37,20.40
2018,07,18,09,38,20.40
2018,07,18,09,39,20.30
2018,07,18,09,40,20.30
2018,07,18,09,41,20.40
2018,07,18,09,42,20.50
2018,07,18,09,43,20.60
2018,07,18,09,44,20.70
2018,07,18,09,45,20.80
2018,07,18,09,46,21.00
2018,07,18,09,47,21.10
2018,07,18,09,48,21.20
2018,07,18,09,49,21.20
2018,07,18,09,50,21.20
2018,07,18,09,51,21.30
2018,07,18,09,52,21.30
2018,07,18,09,53,21.30
2018,07,18,09,54,21.20
2018,07,18,09,55,21.30
2018,07,18,09,56,21.30
2018,07,18,09,57,21.30
2018,07,18,09,58,21.40
2018,07,18,09,59,21.40
2018,07,18,10,00,21.50
2018,07,18,10,01,21.50
2018,07,18,10,02,21.50
2018,07,18,10,03,21.50
2018,07,18,10,04,21.50
2018,07,18,10,05,21.50
2018,07,18,10,06,21.60
2018,07,18,10,07,21.60
2018,07,18,10,08,21.60
2018,07,18,10,09,21.60
2018,07,18,10,10,21.60
2018,07,18,10,11,21.60
2018,07,18,10,12,21.50
2018,07,18,10,13,21.40
2018,07,18,10,14,21.50
2018,07,18,10,15,21.60
2018,07,18,10,16,21.60
2018,07,18,10,17,21.70
2018,07,18,10,18,21.70
2018,07,18,10,19,21.70
2018,07,18,10,20,21.80
2018,07,18,10,21,21.80
2018,07,18,10,22,21.90
2018,07,18,10,23,22.00
2018,07,18,10,24,22.00
2018,07,18,10,25,22.00
2018,07,18,10,26,21.90
2018,07,18,10,27,21.90
2018,07,18,10,28,21.90
2018,07,18,10,29,21.90
2018,07,18,10,30,21.90
2018,07,18,10,31,21.80
2018,07,18,10,32,21.80
2018,07,18,10,33,21.90
2018,07,18,10,34,21.90
2018,07,18,10,35,22.00
2018,07,18,10,36,22.00
2018,07,18,10,37,22.00
2018,07,18,10,38,21.90
2018,07,18,10,39,22.00
2018,07,18,10,40,22.10
2018,07,18,10,41,22.10
2018,07,18,10,42,22.10
2018,07,18,10,43,22.20
2018,07,18,10,44,22.20
2018,07,18,10,45,22.20
2018,07,18,10,46,22.30
2018,07,18,10,47,22.30
2018,07,18,10,48,22.30
2018,07,18,10,49,22.30
2018,07,18,10,50,22.20
2018,07,18,10,51,22.10
2018,07,18,10,52,22.10
2018,07,18,10,53,22.10
2018,07,18,10,54,22.10
2018,07,18,10,55,22.10
2018,07,18,10,56,22.00
2018,07,18,10,57,21.90
2018,07,18,10,58,21.80
2018,07,18,10,59,21.80
2018,07,18,11,00,21.70
2018,07,18,11,01,21.70
2018,07,18,11,02,21.70
2018,07,18,11,03,21.70
2018,07,18,11,04,21.60
2018,07,18,11,05,21.60
2018,07,18,11,06,21.60
2018,07,18,11,07,21.60
2018,07,18,11,08,21.50
2018,07,18,11,09,21.50
2018,07,18,11,10,21.50
2018,07,18,11,11,21.40
2018,07,18,11,12,21.40
2018,07,18,11,13,21.30
2018,07,18,11,14,21.30
2018,07,18,11,15,21.40
2018,07,18,11,16,21.50
2018,07,18,11,17,21.50
2018,07,18,11,18,21.50
2018,07,18,11,19,21.60
2018,07,18,11,20,21.60
2018,07,18,11,21,21.60
2018,07,18,11,22,21.70
2018,07,18,11,23,21.70
2018,07,18,11,24,21.70
2018,07,18,11,25,21.80
2018,07,18,11,26,21.80
2018,07,18,11,27,21.90
2018,07,18,11,28,21.90
2018,07,18,11,29,21.90
2018,07,18,11,30,21.90
2018,07,18,11,31,21.80
2018,07,18,11,32,21.70
2018,07,18,11,33,21.70
2018,07,18,11,34,21.70
2018,07,18,11,35,21.70
2018,07,18,11,36,21.70
2018,07,18,11,37,21.70
2018,07,18,11,38,21.70
2018,07,18,11,39,21.60
2018,07,18,11,40,21.60
2018,07,18,11,41,21.60
2018,07,18,11,42,21.50
2018,07,18,11,43,21.50
2018,07,18,11,44,21.50
2018,07,18,11,45,21.40
2018,07,18,11,46,21.40
2018,07,18,11,47,21.30
2018,07,18,11,48,21.30
2018,07,18,11,49,21.20
2018,07,18,11,50,21.20
2018,07,18,11,51,21.30
2018,07,18,11,52,21.30
2018,07,18,11,53,21.40
2018,07,18,11,54,21.50
2018,07,18,11,55,21.60
2018,07,18,11,56,21.60
2018,07,18,11,57,21.60
2018,07,18,11,58,21.60
2018,07,18,11,59,21.60
2018,07,18,12,00,21.70
2018,07,18,12,01,21.70
2018,07,18,12,02,21.70
2018,07,18,12,03,21.70
2018,07,18,12,04,21.80
2018,07,18,12,05,21.80
2018,07,18,12,06,21.90
2018,07,18,12,07,22.00
2018,07,18,12,08,22.10
2018,07,18,12,09,22.20
2018,07,18,12,10,22.40
2018,07,18,12,11,22.50
2018,07,18,12,12,22.60
2018,07,18,12,13,22.60
2018,07,18,12,14,22.60
2018,07,18,12,15,22.60
2018,07,18,12,16,22.60
2018,07,18,12,17,22.50
2018,07,18,12,18,22.50
2018,07,18,12,19,22.60
2018,07,18,12,20,22.60
2018,07,18,12,21,22.60
2018,07,18,12,22,22.60
2018,07,18,12,23,22.50
2018,07,18,12,24,22.50
2018,07,18,12,25,22.40
2018,07,18,12,26,22.50
2018,07,18,12,27,22.50
2018,07,18,12,28,22.60
2018,07,18,12,29,22.50
2018,07,18,12,30,22.50
2018,07,18,12,31,22.50
2018,07,18,12,32,22.50
2018,07,18,12,33,22.60
2018,07,18,12,34,22.70
2018,07,18,12,35,22.70
2018,07,18,12,36,22.80
2018,07,18,12,37,22.80
2018,07,18,12,38,22.80
2018,07,18,12,39,22.80
2018,07,18,12,40,22.80
2018,07,18,12,41,22.70
2018,07,18,12,42,22.60
2018,07,18,12,43,22.50
2018,07,18,12,44,22.50
2018,07,18,12,45,22.40
2018,07,18,12,46,22.30
2018,07,18,12,47,22.30
2018,07,18,12,48,22.20
2018,07,18,12,49,22.20
2018,07,18,12,50,22.30
2018,07,18,12,51,22.30
2018,07,18,12,52,22.30
2018,07,18,12,53,22.30
2018,07,18,12,54,22.30
2018,07,18,12,55,22.30
2018,07,18,12,56,22.30
2018,07,18,12,57,22.20
2018,07,18,12,58,22.20
2018,07,18,12,59,22.30
2018,07,18,13,00,22.30
2018,07,18,13,01,22.30
2018,07,18,13,02,22.40
2018,07,18,13,03,22.40
2018,07,18,13,04,22.50
2018,07,18,13,05,22.50
2018,07,18,13,06,22.60
2018,07,18,13,07,22.70
2018,07,18,13,08,22.70
2018,07,18,13,09,22.70
2018,07,18,13,10,22.60
2018,07,18,13,11,22.60
2018,07,18,13,12,22.70
2018,07,18,13,13,22.70
2018,07,18,13,14,22.60
2018,07,18,13,15,22.60
2018,07,18,13,16,22.40
2018,07,18,13,17,22.40
2018,07,18,13,18,22.30
2018,07,18,13,19,22.30
2018,07,18,13,20,22.30
2018,07,18,13,21,22.30
2018,07,18,13,22,22.30
2018,07,18,13,23,22.30
2018,07,18,13,24,22.40
2018,07,18,13,25,22.40
2018,07,18,13,26,22.30
2018,07,18,13,27,22.30
2018,07,18,13,28,22.30
2018,07,18,13,29,22.30
2018,07,18,13,30,22.30
2018,07,18,13,31,22.40
2018,07,18,13,32,22.40
2018,07,18,13,33,22.40
2018,07,18,13,34,22.40
2018,07,18,13,35,22.30
2018,07,18,13,36,22.30
2018,07,18,13,37,22.30
2018,07,18,13,38,22.40
2018,07,18,13,39,22.40
2018,07,18,13,40,22.50
2018,07,18,13,41,22.50
2018,07,18,13,42,22.60
2018,07,18,13,43,22.70
2018,07,18,13,44,22.70
2018,07,18,13,45,22.70
2018,07,18,13,46,22.70
2018,07,18,13,47,22.70
2018,07,18,13,48,22.70
2018,07,18,13,49,22.50
2018,07,18,13,50,22.40
2018,07,18,13,51,22.40
2018,07,18,13,52,22.40
2018,07,18,13,53,22.40
2018,07,18,13,54,22.40
2018,07,18,13,55,22.50
2018,07,18,13,56,22.50
2018,07,18,13,57,22.60
2018,07,18,13,58,22.60
2018,07,18,13,59,22.70
2018,07,18,14,00,22.70
2018,07,18,14,01,22.60
2018,07,18,14,02,22.60
2018,07,18,14,03,22.50
2018,07,18,14,04,22.50
2018,07,18,14,05,22.30
2018,07,18,14,06,22.20
2018,07,18,14,07,22.10
2018,07,18,14,08,21.90
2018,07,18,14,09,21.80
2018,07,18,14,10,21.80
2018,07,18,14,11,21.90
2018,07,18,14,12,22.00
2018,07,18,14,13,22.00
2018,07,18,14,14,22.00
2018,07,18,14,15,22.00
2018,07,18,14,16,21.90
2018,07,18,14,17,21.80
2018,07,18,14,18,21.80
2018,07,18,14,19,21.70
2018,07,18,14,20,21.80
2018,07,18,14,21,21.80
2018,07,18,14,22,21.80
2018,07,18,14,23,21.70
2018,07,18,14,24,21.70
2018,07,18,14,25,21.60
2018,07,18,14,26,21.50
2018,07,18,14,27,21.50
2018,07,18,14,28,21.50
2018,07,18,14,29,21.70
2018,07,18,14,30,21.80
2018,07,18,14,31,21.90
2018,07,18,14,32,22.10
2018,07,18,14,33,22.20
2018,07,18,14,34,22.30
2018,07,18,14,35,22.30
2018,07,18,14,36,22.40
2018,07,18,14,37,22.50
2018,07,18,14,38,22.60
2018,07,18,14,39,22.70
2018,07,18,14,40,22.80
2018,07,18,14,41,22.80
2018,07,18,14,42,22.80
2018,07,18,14,43,22.60
2018,07,18,14,44,22.40
2018,07,18,14,45,22.20
2018,07,18,14,46,22.10
2018,07,18,14,47,22.10
2018,07,18,14,48,22.10
2018,07,18,14,49,22.10
2018,07,18,14,50,22.00
2018,07,18,14,51,21.90
2018,07,18,14,52,21.90
2018,07,18,14,53,21.90
2018,07,18,14,54,21.80
2018,07,18,14,55,21.80
2018,07,18,14,56,21.80
2018,07,18,14,57,21.80
2018,07,18,14,58,21.80
2018,07,18,14,59,21.70
2018,07,18,15,00,21.80
2018,07,18,15,01,21.80
2018,07,18,15,02,21.80
2018,07,18,15,03,21.80
2018,07,18,15,04,21.80
2018,07,18,15,05,21.80
2018,07,18,15,06,21.80
2018,07,18,15,07,21.90
2018,07,18,15,08,22.00
2018,07,18,15,09,22.00
2018,07,18,15,10,22.20
2018,07,18,15,11,22.30
2018,07,18,15,12,22.40
2018,07,18,15,13,22.40
2018,07,18,15,14,22.30
2018,07,18,15,15,22.10
2018,07,18,15,16,22.00
2018,07,18,15,17,21.80
2018,07,18,15,18,21.70
2018,07,18,15,19,21.70
2018,07,18,15,20,21.80
2018,07,18,15,21,21.80
2018,07,18,15,22,21.80
2018,07,18,15,23,21.90
2018,07,18,15,24,21.90
2018,07,18,15,25,21.90
2018,07,18,15,26,21.90
2018,07,18,15,27,21.90
2018,07,18,15,28,21.90
2018,07,18,15,29,22.00
2018,07,18,15,30,22.00
2018,07,18,15,31,21.90
2018,07,18,15,32,21.90
2018,07,18,15,33,21.80
2018,07,18,15,34,21.80
2018,07,18,15,35,21.80
2018,07,18,15,36,21.80
2018,07,18,15,37,21.80
2018,07,18,15,38,21.80
2018,07,18,15,39,21.90
2018,07,18,15,40,21.90
2018,07,18,15,41,22.00
2018,07,18,15,42,22.00
2018,07,18,15,43,22.10
2018,07,18,15,44,22.20
2018,07,18,15,45,22.20
2018,07,18,15,46,22.20
2018,07,18,15,47,22.20
2018,07,18,15,48,22.30
2018,07,18,15,49,22.30
2018,07,18,15,50,22.40
2018,07,18,15,51,22.50
2018,07,18,15,52,22.50
2018,07,18,15,53,22.60
2018,07,18,15,54,22.60
2018,07,18,15,55,22.60
2018,07,18,15,56,22.60
2018,07,18,15,57,22.70
2018,07,18,15,58,22.70
2018,07,18,15,59,22.70
2018,07,18,16,00,22.70
2018,07,18,16,01,22.80
2018,07,18,16,02,22.70
2018,07,18,16,03,22.70
2018,07,18,16,04,22.80
2018,07,18,16,05,22.70
2018,07,18,16,06,22.70
2018,07,18,16,07,22.70
2018,07,18,16,08,22.70
2018,07,18,16,09,22.60
2018,07,18,16,10,22.50
2018,07,18,16,11,22.40
2018,07,18,16,12,22.40
2018,07,18,16,13,22.40
2018,07,18,16,14,22.40
2018,07,18,16,15,22.40
2018,07,18,16,16,22.50
2018,07,18,16,17,22.60
2018,07,18,16,18,22.70
2018,07,18,16,19,22.70
2018,07,18,16,20,22.80
2018,07,18,16,21,22.80
2018,07,18,16,22,22.90
2018,07,18,16,23,22.80
2018,07,18,16,24,22.80
2018,07,18,16,25,22.70
2018,07,18,16,26,22.70
2018,07,18,16,27,22.70
2018,07,18,16,28,22.70
2018,07,18,16,29,22.70
2018,07,18,16,30,22.70
2018,07,18,16,31,22.60
2018,07,18,16,32,22.60
2018,07,18,16,33,22.60
2018,07,18,16,34,22.60
2018,07,18,16,35,22.60
2018,07,18,16,36,22.60
2018,07,18,16,37,22.60
2018,07,18,16,38,22.70
2018,07,18,16,39,22.70
2018,07,18,16,40,22.70
2018,07,18,16,41,22.70
2018,07,18,16,42,22.70
2018,07,18,16,43,22.70
2018,07,18,16,44,22.60
2018,07,18,16,45,22.40
2018,07,18,16,46,22.30
2018,07,18,16,47,22.30
2018,07,18,16,48,22.30
2018,07,18,16,49,22.30
2018,07,18,16,50,22.30
2018,07,18,16,51,22.30
2018,07,18,16,52,22.30
2018,07,18,16,53,22.30
2018,07,18,16,54,22.30
2018,07,18,16,55,22.30
2018,07,18,16,56,22.40
2018,07,18,16,57,22.40
2018,07,18,16,58,22.50
2018,07,18,16,59,22.60
2018,07,18,17,00,22.70
2018,07,18,17,01,22.80
2018,07,18,17,02,22.80
2018,07,18,17,03,22.80
2018,07,18,17,04,22.80
2018,07,18,17,05,22.80
2018,07,18,17,06,22.70
2018,07,18,17,07,22.70
2018,07,18,17,08,22.70
2018,07,18,17,09,22.70
2018,07,18,17,10,22.70
2018,07,18,17,11,22.70
2018,07,18,17,12,22.70
2018,07,18,17,13,22.70
2018,07,18,17,14,22.70
2018,07,18,17,15,22.70
2018,07,18,17,16,22.70
2018,07,18,17,17,22.60
2018,07,18,17,18,22.60
2018,07,18,17,19,22.50